Location: Leiter
(44.7178°N, 106.2687°W)
Time: 07:08:48
(UTC+00:00)

DX 1 - Pass Details

Date: 05 July 2022
Orbit: 616 x 630 km, 98.4° (Epoch: 17 August)

Event Time Altitude Azimuth Distance (km) Brightness Sun altitude
Rises 04:23:55 0° 13° (NNE) 2,930 ? -12.6°
Reaches altitude 10° 04:26:07 10° 13° (NNE) 2,016 ? -12.9°
Maximum altitude 04:30:31 87° 286° (WNW) 634 ? -13.3°
Drops below altitude 10° 04:34:52 10° 196° (SSW) 1,993 ? -13.8°
Enters shadow 04:35:20 - 196° (SSW) 2,183 ? -13.9°
